SCOUT B DEB, 28265

Orbit data source: Space-Track

SCOUT B DEB, 28265 is space debris in LEO originally from a launch on Fri, 10 Jun 1966 UTC launched from the Wallops Island (WLPIS). Debris objects in space refer to the collection of defunct objects orbiting the Earth. Examples of debris include non-operational satellites, rocket bodies, and fragments generated from explosions, collisions, or faulty payload assembly.

Loading next visibility...
Identifier
28265, 1966-052E
Orbit
LEO
Country
Flag of USUS
Related business
Manufacturer
Unknown
Mission
Spacecraft
Bus & Motor
Unknown
Mass
Unknown
Launch date (UTC)
1966-06-10 (60 years ago)
Launch vehicle
Unknown
Launch site
Wallops Island (WLPIS)
Object type
Payload
Rocket body
Debris
Shape & HBR
Unknown shape, 0.1 m
Radar Cross Section
Small (<0.1 m²)

Expand to show TLE details & history
Last TLE update: 4 days ago

TLE from 4 days ago
0 SCOUT B DEB
1 28265U 66052E   26243.63059092 -.00000458  00000-0 -47968-3 0  9999
2 28265  40.8500 225.6816 1952620 194.9681 158.4051 10.69499121 81190
Epoch: 2026-08-31T15:08Z
TLE epoch observation values (Epoch: 2026-08-31T15:08:03.055Z)
Latitude
-0.00001°
Longitude
18.85979°
Altitude
3,938.057 km
Speed
5.612 km/s
True Right ascension
15h 02m 43s
True Declination
0° 00' 00"
Sunlit
Object was in daylight at epoch
Visualization orbit readout
Latitude
Unknown
Longitude
Unknown
Altitude
Unknown
Speed
Unknown
Apparent Right ascension
Unknown
Apparent Declination
Unknown
Sunlit
N/A
Visualization observer readout
Local Sidereal Time
01:36:22
Azimuth
Unknown
Elevation
Unknown
Doppler factor
Unknown
Orbital elements
Apogee altitude
4,025.237 km
Perigee altitude
626.177 km
Semi-major axis
8,703.844 km
Eccentricity
0.19526
Inclination
40.85°
RAAN
225.6816°
Arg. of periapsis
194.9681°
True anomaly
165.09465°
Mean anomaly
158.4051°
Eccentric anomaly
161.88385°
Mean motion
2.67286 °/min
Orbital period
134.69 mins
BSTAR
-0.00047968
Loading maneuver chart data...
Computing Atmospheric mass density...
Loading historical data...
Loading historical data...
Loading historical data...
Loading historical data...
Loading historical data...
Loading historical data...
Loading historical data...
Other satellites on launch #52 in the year 1966 (1966-06-10 UTC)

Documentation

Showing up to 5 results
|